User: anonymous   Login
Location: Unspecified
(0.0000°N, 0.0000°E)
Time: 18:24:23
(UTC+00:00)
Language:

STARLINK-6270 - Orbit

View from above orbital plane
View from above orbital plane
View from above satellite
View from above satellite

Ground track
Ground track

The orbit is defined by the following mean orbital elements,

1 56421U          26145.50003470 +.00000000 +00000-0 +89771-4 0 00004
2 56421  43.0006 109.3421 0001711 282.2822 125.3944 15.27582311    02
Epoch (UTC): 25 May 2026 12:00:02
Eccentricity: 0.0001711
inclination: 43.0006°
perigee height: 482 km
apogee height: 484 km
right ascension of ascending node: 109.3421°
argument of perigee: 282.2822°
revolutions per day: 15.27582311
mean anomaly at epoch: 125.3944°

The dashed part of the orbit path shows where the satellite is in the earth's shadow,  

DLR